Location: Sternwarte auf dem Internationalen Platz Vogelsang IP
(50.5721°N, 6.4398°E)
Time: 11:39:51
(UTC+01:00)

ACS3 Solar Sail - Pass Details

Date: 19 November 2025
Orbit: 888 x 1003 km, 97.3° (Epoch: 07 December)

Event Time Altitude Azimuth Distance (km) Brightness Sun altitude
Rises 06:09:35 0° 2° (N) 3,566 4.7 -16.5°
Reaches altitude 10° 06:13:06 10° 340° (NNW) 2,641 3.8 -16.0°
Enters shadow 06:14:57 14° 322° (NW) 2,377 3.4 -15.7°
